This is the latest recevied weather packets stored in our database for station/object AB1AU. If no packets are shown the sender has not sent any weather packets the latest 1 day(s).
| Time | Temp. | Humidity | Pressure | Rain* | Wind** | Luminosity | Snow |
|---|---|---|---|---|---|---|---|
| 1778016493 | 21.67° C | 48% | 1004.3 hPa | 0 mm | 3.58 m/s, 243° | 86 W/m² | - |
| 1778016191 | 22.22° C | 48% | 1004.2 hPa | 0 mm | 2.24 m/s, 165° | 95 W/m² | - |
| 1778015887 | 22.22° C | 48% | 1004.1 hPa | 0 mm | 3.58 m/s, 143° | 109 W/m² | - |
| 1778015585 | 22.22° C | 48% | 1004.2 hPa | 0 mm | 4.02 m/s, 242° | 90 W/m² | - |
| 1778015281 | 22.22° C | 48% | 1004.1 hPa | 0 mm | 2.68 m/s, 151° | 87 W/m² | - |
| 1778014978 | 22.78° C | 48% | 1004 hPa | 0 mm | 1.79 m/s, 256° | 94 W/m² | - |
| 1778014675 | 22.78° C | 47% | 1004.1 hPa | 0 mm | 2.68 m/s, 208° | 115 W/m² | - |
| 1778014373 | 22.78° C | 47% | 1004 hPa | 0 mm | 4.47 m/s, 167° | 175 W/m² | - |
| 1778014069 | 23.33° C | 46% | 1003.9 hPa | 0 mm | 4.02 m/s, 124° | 156 W/m² | - |
| 1778013768 | 23.33° C | 46% | 1003.8 hPa | 0 mm | 1.34 m/s, 122° | 128 W/m² | - |
| 1778013464 | 23.33° C | 45% | 1003.7 hPa | 0 mm | 2.24 m/s, 133° | 155 W/m² | - |
| 1778013161 | 23.33° C | 45% | 1003.8 hPa | 0 mm | 4.02 m/s, 174° | 120 W/m² | - |
| 1778012857 | 23.89° C | 45% | 1003.7 hPa | 0 mm | 2.68 m/s, 152° | 151 W/m² | - |
| 1778012553 | 23.89° C | 45% | 1003.8 hPa | 0 mm | 1.79 m/s, 185° | 154 W/m² | - |
| 1778012250 | 23.89° C | 45% | 1004 hPa | 0 mm | 1.34 m/s, 125° | 150 W/m² | - |
| 1778011948 | 23.89° C | 45% | 1003.9 hPa | 0 mm | 2.68 m/s, 195° | 183 W/m² | - |
| 1778011646 | 23.89° C | 45% | 1004.1 hPa | 0 mm | 3.58 m/s, 161° | 215 W/m² | - |
| 1778011342 | 24.44° C | 44% | 1003.8 hPa | 0 mm | 3.58 m/s, 141° | 154 W/m² | - |
| 1778011038 | 25° C | 44% | 1004.2 hPa | 0 mm | 1.79 m/s, 221° | 185 W/m² | - |
| 1778010736 | 25° C | 44% | 1004.1 hPa | 0 mm | 3.13 m/s, 150° | 273 W/m² | - |
| 1778010433 | 25° C | 44% | 1004.1 hPa | 0 mm | 1.34 m/s, 128° | 214 W/m² | - |
| 1778010129 | 25° C | 42% | 1004.3 hPa | 0 mm | 5.36 m/s, 203° | 272 W/m² | - |
| 1778009825 | 25° C | 44% | 1004.4 hPa | 0 mm | 1.79 m/s, 159° | 263 W/m² | - |
| 1778009522 | 24.44° C | 44% | 1004.1 hPa | 0 mm | 1.34 m/s, 184° | 344 W/m² | - |
| 1778009221 | 24.44° C | 43% | 1004.3 hPa | 0 mm | 3.13 m/s, 252° | 186 W/m² | - |
* Rain latest hour (hover to see other rain measurements)
** Current wind speed in m/s (hover to see current wind gust speed)